EW4692 Weather Reports


time (UTC)temp
C
wind
direction
speed
KPH
gust
KPH
rain 1hr
cm
rain 24hr
cm
rain mn
cm
humidity
%
barometer
mb
20260504190205 15 265 6.4 17.7 0.00 0.15 0.15 72 1010.0
20260504190021 15 256 6.4 16.1 0.00 0.15 0.15 72 1010.4
20260504185705 15 294 3.2 4.8 0.00 0.15 0.15 72 1010.0
20260504184705 15 263 1.6 6.4 0.00 0.15 0.15 72 1009.5
20260504184521 15 259 0.0 4.8 0.00 0.15 0.15 72 1009.8
20260504184206 15 261 3.2 6.4 0.00 0.15 0.15 72 1009.5
20260504183705 15 324 3.2 9.7 0.00 0.15 0.15 72 1009.4
20260504183205 15 330 3.2 9.7 0.00 0.15 0.15 72 1009.3
20260504183025 15 311 1.6 9.7 0.00 0.15 0.15 72 1009.7
20260504182206 15 305 3.2 6.4 0.00 0.15 0.15 72 1009.4
20260504181705 15 257 3.2 6.4 0.00 0.15 0.15 71 1009.3
20260504181622 15 276 3.2 6.4 0.00 0.15 0.15 71 1009.7
20260504181207 15 259 3.2 6.4 0.00 0.15 0.15 72 1009.3
20260504180705 15 9 3.2 6.4 0.00 0.15 0.15 71 1009.3
20260504180205 15 329 1.6 6.4 0.00 0.15 0.15 71 1009.3
20260504180019 15 5 1.6 4.8 0.00 0.15 0.15 71 1009.7
20260504175705 15 212 1.6 6.4 0.00 0.15 0.15 71 1009.4
20260504174705 15 269 3.2 6.4 0.00 0.15 0.15 71 1009.4
20260504174518 15 266 3.2 6.4 0.00 0.15 0.15 71 1009.7
20260504174206 15 258 1.6 6.4 0.00 0.15 0.15 71 1009.3
20260504173705 15 27 1.6 6.4 0.00 0.15 0.15 71 1009.3
20260504173206 15 321 1.6 6.4 0.00 0.15 0.15 71 1009.3
20260504173016 15 338 1.6 6.4 0.00 0.15 0.15 71 1009.6
20260504172705 15 331 3.2 6.4 0.03 0.15 0.15 71 1009.3
20260504172206 15 336 1.6 8.0 0.03 0.15 0.15 71 1009.5
20260504171516 15 328 0.0 8.0 0.03 0.15 0.15 71 1009.8
20260504171206 15 323 3.2 8.0 0.05 0.15 0.15 71 1009.4
20260504170705 15 321 1.6 6.4 0.05 0.15 0.15 70 1009.5
20260504170205 15 32 1.6 6.4 0.05 0.15 0.15 70 1009.6
20260504160205 15 48 4.8 16.1 0.10 0.13 0.13 68 1010.1
20260504150706 16 13 6.4 16.1 0.00 0.03 0.03 63 1010.6
20260504150206 17 98 6.4 16.1 0.00 0.03 0.03 63 1010.6
20260504140705 17 59 6.4 17.7 0.00 0.03 0.03 62 1010.9
20260504140206 17 61 6.4 17.7 0.00 0.03 0.03 62 1011.0
20260504130723 16 19 4.8 14.5 0.00 0.03 0.03 63 1011.3
20260504130205 16 104 4.8 14.5 0.00 0.03 0.03 63 1011.4
20260504110705 15 344 6.4 14.5 0.00 0.03 0.03 64 1012.4
20260504110205 15 344 4.8 14.5 0.00 0.03 0.03 64 1012.7
20260504100205 14 5 6.4 20.9 0.00 0.03 0.03 64 1013.0
20260504081705 15 238 6.4 17.7 0.00 0.03 0.03 64 1012.6
20260504081536 14 355 4.8 16.1 0.00 0.03 0.03 64 1012.8
20260504081205 15 40 6.4 19.3 0.00 0.03 0.03 64 1012.4
20260504080705 15 331 8.0 19.3 0.00 0.03 0.03 64 1012.3
20260504080205 15 5 6.4 19.3 0.00 0.03 0.03 64 1012.2
20260504070206 17 97 6.4 11.3 0.00 0.03 0.03 66 1011.4
20260504050705 16 90 4.8 11.3 0.00 0.03 0.03 71 1011.0
20260504050206 16 96 4.8 11.3 0.00 0.03 0.03 71 1011.0
20260504050008 16 123 3.2 11.3 0.00 0.03 0.03 71 1011.4
20260504045705 16 89 4.8 12.9 0.00 0.03 0.03 71 1011.0
20260504044705 16 94 4.8 12.9 0.00 0.03 0.03 71 1011.1
20260504044511 16 67 1.6 12.9 0.00 0.03 0.03 71 1011.5
20260504044205 16 94 4.8 12.9 0.00 0.03 0.03 71 1011.2
20260504043705 16 118 4.8 12.9 0.00 0.03 0.03 71 1011.3
20260504043206 16 95 4.8 12.9 0.00 0.03 0.03 71 1011.2
20260504043005 16 88 1.6 12.9 0.00 0.03 0.03 71 1011.5
20260504042705 16 128 6.4 12.9 0.00 0.03 0.03 71 1011.2
20260504041705 16 116 6.4 12.9 0.00 0.03 0.03 71 1011.2
20260504041504 16 86 4.8 12.9 0.00 0.03 0.03 71 1011.6
20260504040205 16 101 8.0 17.7 0.00 0.03 0.03 71 1011.2
20260504040004 16 110 6.4 17.7 0.00 0.03 0.03 71 1011.6
20260504035706 16 117 9.7 19.3 0.00 0.03 0.03 71 1011.2
20260504035205 16 105 8.0 25.7 0.00 0.03 0.03 71 1011.2
20260504034705 16 46 9.7 25.7 0.00 0.03 0.03 71 1011.2
20260504034502 16 92 8.0 25.7 0.00 0.03 0.03 71 1011.6
20260504034206 16 81 9.7 25.7 0.00 0.03 0.03 71 1011.4
20260504033706 16 88 9.7 17.7 0.00 0.03 0.03 71 1011.5
20260504033206 16 88 9.7 17.7 0.00 0.03 0.03 71 1011.5
20260504033103 16 78 9.7 17.7 0.00 0.03 0.03 71 1011.8
20260504032705 16 117 9.7 20.9 0.00 0.03 0.03 71 1011.6
20260504032205 16 80 9.7 20.9 0.00 0.03 0.03 71 1011.6
20260504031705 16 153 8.0 17.7 0.00 0.03 0.03 71 1011.7
20260504031604 16 87 9.7 20.9 0.00 0.03 0.03 71 1012.0
20260504031206 16 94 8.0 17.7 0.00 0.03 0.03 71 1011.7
20260504030705 16 132 9.7 17.7 0.00 0.03 0.03 71 1011.7
20260504030206 16 138 8.0 16.1 0.00 0.03 0.03 70 1011.8
20260504030055 16 109 8.0 17.7 0.00 0.03 0.03 70 1012.1
20260504025705 16 71 4.8 11.3 0.00 0.03 0.03 70 1011.8
20260504025205 16 92 4.8 12.9 0.00 0.03 0.03 70 1011.9
20260504024705 16 101 6.4 12.9 0.00 0.03 0.03 70 1011.9
20260504024555 16 135 4.8 14.5 0.00 0.03 0.03 70 1012.3
20260504024206 16 92 6.4 17.7 0.00 0.03 0.03 70 1011.9
20260504023705 16 99 6.4 20.9 0.00 0.03 0.03 70 1012.0
20260504023206 16 76 8.0 20.9 0.00 0.03 0.03 70 1012.0
20260504023052 16 115 4.8 20.9 0.00 0.03 0.03 70 1012.4
20260504022206 16 108 8.0 22.5 0.00 0.03 0.03 70 1012.0
20260504021705 16 94 9.7 22.5 0.00 0.03 0.03 70 1012.1
20260504021550 16 87 9.7 22.5 0.00 0.03 0.03 70 1012.4
20260504021206 16 101 9.7 22.5 0.00 0.03 0.03 70 1012.2
20260504020705 16 98 9.7 25.7 0.00 0.03 0.03 70 1012.2
20260504020205 16 88 8.0 25.7 0.00 0.03 0.03 70 1012.2
20260504020049 16 84 9.7 25.7 0.00 0.03 0.03 70 1012.5
20260504015705 16 80 8.0 19.3 0.00 0.03 0.03 70 1012.2
20260504015206 16 91 8.0 19.3 0.00 0.03 0.03 70 1012.2
20260504014556 16 80 11.3 19.3 0.00 0.03 0.03 70 1012.5
20260504013205 16 161 8.0 20.9 0.00 0.03 0.03 70 1012.2
20260504013048 16 105 8.0 20.9 0.00 0.03 0.03 70 1012.6
20260504012705 16 69 8.0 20.9 0.00 0.03 0.03 70 1012.2
20260504012206 16 88 8.0 19.3 0.00 0.03 0.03 70 1012.2
20260504011706 16 113 8.0 19.3 0.00 0.03 0.03 70 1012.2
20260504011548 16 94 8.0 19.3 0.00 0.03 0.03 70 1012.6
20260504011205 16 111 8.0 19.3 0.00 0.03 0.03 70 1012.4
20260504010705 16 97 8.0 19.3 0.00 0.03 0.03 70 1012.4
20260504010051 16 138 9.7 19.3 0.00 0.03 0.03 69 1012.7
20260504005705 16 111 8.0 17.7 0.00 0.03 0.03 69 1012.4
20260504005206 16 78 6.4 17.7 0.00 0.03 0.03 69 1012.4
20260504004705 16 94 6.4 19.3 0.00 0.03 0.03 69 1012.4
20260504004542 16 96 4.8 16.1 0.00 0.03 0.03 69 1012.8
20260504004205 16 118 9.7 19.3 0.00 0.03 0.03 69 1012.4
20260504003705 16 73 9.7 19.3 0.00 0.03 0.03 69 1012.6
20260504003206 16 104 9.7 20.9 0.00 0.03 0.03 69 1012.6
20260504003041 16 83 8.0 19.3 0.00 0.03 0.03 69 1012.9
20260504002705 16 106 9.7 20.9 0.00 0.03 0.03 69 1012.6
20260504002206 16 83 9.7 20.9 0.00 0.03 0.03 69 1012.6
20260504001705 16 92 9.7 17.7 0.00 0.03 0.03 69 1012.7
20260504001545 16 110 9.7 17.7 0.00 0.03 0.03 69 1012.9
20260504001206 16 150 8.0 12.9 0.03 0.03 0.03 69 1012.6
20260504000705 16 136 4.8 14.5 0.03 0.03 0.03 69 1012.7
20260504000206 16 94 4.8 14.5 0.03 0.03 0.03 69 1012.8
20260504000042 15 114 4.8 14.5 0.03 0.03 0.03 69 1013.2
20260503235705 16 97 4.8 14.5 0.03 0.03 0.03 69 1012.9
20260503235231 16 94 4.8 14.5 0.03 0.03 0.03 69 1013.0
20260503234705 16 114 6.4 19.3 0.03 0.03 0.03 68 1013.0
20260503234532 15 100 3.2 14.5 0.03 0.03 0.03 68 1013.4
20260503234205 16 125 6.4 19.3 0.03 0.03 0.03 68 1013.1
20260503233705 16 145 6.4 19.3 0.03 0.03 0.03 68 1013.1
20260503233030 15 184 6.4 17.7 0.03 0.03 0.03 68 1013.5
20260503232705 16 88 9.7 22.5 0.03 0.03 0.03 68 1013.2
20260503232206 16 84 8.0 22.5 0.03 0.03 0.03 68 1013.3
20260503231705 16 132 4.8 14.5 0.03 0.03 0.03 68 1013.3
20260503231527 16 92 3.2 12.9 0.03 0.03 0.03 68 1013.7
20260503231206 16 96 4.8 14.5 0.00 0.00 0.00 68 1013.3
20260503230205 16 102 8.0 16.1 0.00 0.00 0.00 68 1013.3
20260503230026 16 90 8.0 16.1 0.00 0.00 0.00 68 1013.7
20260503225705 16 99 6.4 14.5 0.00 0.00 0.00 68 1013.4
20260503225206 16 97 6.4 14.5 0.00 0.00 0.00 68 1013.4
20260503224705 16 95 8.0 17.7 0.00 0.00 0.00 67 1013.4
20260503224528 16 67 6.4 14.5 0.00 0.00 0.00 68 1013.7
20260503224205 16 98 8.0 17.7 0.00 0.00 0.00 67 1013.4
20260503223205 16 128 8.0 19.3 0.00 0.00 0.00 67 1013.5
20260503223021 16 111 6.4 19.3 0.00 0.00 0.00 67 1013.9
20260503222206 16 107 6.4 16.1 0.00 0.00 0.00 67 1013.6
20260503221706 16 66 6.4 19.3 0.00 0.00 0.00 67 1013.7
20260503221519 16 86 6.4 12.9 0.00 0.00 0.00 67 1014.2
20260503221205 16 111 6.4 19.3 0.00 0.00 0.00 67 1013.8
20260503220705 16 105 6.4 20.9 0.00 0.00 0.00 67 1013.9
20260503220205 16 95 8.0 20.9 0.00 0.00 0.00 67 1014.0
20260503220020 16 106 4.8 16.1 0.00 0.00 0.00 67 1014.3
20260503215705 16 93 8.0 20.9 0.00 0.00 0.00 67 1014.0
20260503215206 16 97 6.4 20.9 0.00 0.00 0.00 67 1014.1
20260503214705 16 109 6.4 20.9 0.00 0.00 0.00 67 1014.1
20260503214524 16 130 4.8 19.3 0.00 0.00 0.00 66 1014.4
20260503214206 16 132 9.7 20.9 0.00 0.00 0.00 66 1014.1
20260503213705 16 64 9.7 19.3 0.00 0.00 0.00 66 1014.1
20260503213205 16 84 9.7 19.3 0.00 0.00 0.00 66 1014.0
20260503213015 16 95 8.0 19.3 0.00 0.00 0.00 66 1014.4
20260503212705 16 113 9.7 19.3 0.00 0.00 0.00 66 1014.1
20260503212206 16 84 9.7 16.1 0.00 0.00 0.00 66 1014.1
20260503211705 16 93 8.0 16.1 0.00 0.00 0.00 66 1014.2
20260503211514 16 106 6.4 16.1 0.00 0.00 0.00 66 1014.6
20260503210205 16 99 8.0 19.3 0.00 0.00 0.00 66 1014.4
20260503210036 16 130 6.4 19.3 0.00 0.00 0.00 66 1014.8
20260503205705 17 106 9.7 19.3 0.00 0.00 0.00 66 1014.3
20260503205205 17 92 8.0 19.3 0.00 0.00 0.00 66 1014.3
20260503204705 17 83 9.7 16.1 0.00 0.00 0.00 66 1014.2
20260503204513 16 129 8.0 16.1 0.00 0.00 0.00 66 1014.6
20260503204205 17 81 8.0 22.5 0.00 0.00 0.00 66 1014.3
20260503203205 17 90 11.3 22.5 0.00 0.00 0.00 65 1014.2
20260503203014 16 98 14.5 22.5 0.00 0.00 0.00 65 1014.5
20260503202705 17 88 11.3 22.5 0.00 0.00 0.00 65 1014.2
20260503202206 17 95 11.3 22.5 0.00 0.00 0.00 65 1014.1
20260503201705 17 92 9.7 20.9 0.00 0.00 0.00 65 1014.1
20260503201513 16 118 9.7 20.9 0.00 0.00 0.00 65 1014.4
20260503201205 17 92 9.7 20.9 0.00 0.00 0.00 65 1014.1
20260503200705 17 154 11.3 20.9 0.00 0.00 0.00 65 1014.2
20260503200206 17 98 11.3 20.9 0.00 0.00 0.00 64 1014.2
20260503200016 16 96 11.3 20.9 0.00 0.00 0.00 64 1014.6
20260503195705 17 132 9.7 19.3 0.00 0.00 0.00 64 1014.2
20260503195206 17 94 9.7 20.9 0.00 0.00 0.00 64 1014.1
20260503194705 17 128 9.7 20.9 0.00 0.00 0.00 64 1014.1
20260503194512 16 122 8.0 17.7 0.00 0.00 0.00 63 1014.5
20260503194206 17 85 9.7 20.9 0.00 0.00 0.00 63 1014.1
20260503193011 16 129 9.7 27.4 0.00 0.00 0.00 63 1014.3
20260503192206 17 84 9.7 24.1 0.00 0.00 0.00 63 1013.9
20260503191705 16 65 8.0 20.9 0.00 0.00 0.00 63 1013.9
20260503191510 16 107 8.0 17.7 0.00 0.00 0.00 63 1014.3
20260503191205 16 111 8.0 22.5 0.00 0.00 0.00 64 1013.9